[[{"header":{"parameterUnit":"m.s-1","parameterCategory":1,"la1":30.2992,"la2":30.254,"lo1":-89.0895,"lo2":-89.0443,"dy":0.0025,"dx":0.0025,"nx":19,"ny":19,"refTime":"2026-03-22T03:00:00:Z","depth":0,"parameterNumber":2,"parameterNumberName":"U-component_of_WINDS"},"data":[0,0,0,2.1462,2.1465,2.1578,2.1578,2.1745,2.1747,0,0,0,0,0,0,0,0,0,0,0,2.144,2.1442,2.1462,2.1465,2.1578,2.1578,2.1745,2.1747,0,0,0,0,0,0,0,0,0,0,0,2.144,2.1442,2.1443,2.1465,2.1578,2.1578,2.1744,2.1652,0,0,0,0,0,0,0,0,0,0,2.1538,2.153,2.1441,2.1444,2.1466,2.1578,2.1578,2.1647,2.1657,2.1703,0,2.1745,0,2.1749,2.1759,2.176,0,0,0,2.1457,2.1521,2.154,2.1444,2.1467,2.1577,2.1524,2.1652,2.1665,2.1717,2.1748,2.1753,2.1752,2.1761,2.1761,2.2049,2.2051,0,0,2.145,2.1468,2.1532,2.1549,2.1531,2.1521,2.1528,2.1659,2.1694,2.1748,2.1757,2.1754,2.1762,2.1763,2.2047,2.2049,0,0,0,2.1438,2.1464,2.1479,2.1542,2.1561,2.1524,2.1533,2.1688,2.1692,2.1758,2.1756,2.1763,2.1765,2.2045,2.2048,2.215,0,0,0,2.1434,2.1456,2.1477,2.1489,2.1559,2.1626,2.1559,2.1683,2.1697,2.1755,2.1763,2.1767,2.2043,2.2047,2.2143,2.2196,0,0,0,2.1429,2.1456,2.1476,2.149,2.1539,2.1623,2.1634,2.1685,2.1696,2.176,2.1767,2.2042,2.2046,2.2137,2.2186,2.2277,0,0,0,2.143,2.1566,2.1478,2.163,2.1538,2.1685,2.1633,2.1742,2.1809,2.1764,2.2044,2.2048,2.2135,2.2179,2.227,2.2357,2.2394,0,0,2.1612,2.1589,2.1677,2.1601,2.1768,2.1666,2.1849,2.1895,2.1886,2.1995,2.2002,2.2146,2.2185,2.2275,2.2597,2.2627,0,0,0,2.1741,2.1804,2.1845,2.1908,2.1945,2.1982,2.1997,2.2014,2.2106,2.1945,2.2202,2.2225,2.2278,2.2318,2.2344,2.2388,2.2067,2.2066,2.2066,2.2025,2.2004,2.2149,2.2142,2.2205,2.2219,2.2268,2.2294,2.2256,2.2317,2.235,2.2547,2.2595,2.2614,2.2661,2.2393,2.2394,2.2394,2.2394,2.229,2.2377,2.2322,2.2443,2.2422,2.2523,2.2543,2.2513,2.2605,2.2521,2.2566,2.2477,2.2648,2.2687,2.2402,2.2401,2.24,2.2399,2.2398,2.2474,2.2512,2.2529,2.2619,2.2691,2.268,2.2771,2.2748,2.2728,2.2772,2.2805,2.2803,2.2799,2.2789,2.279,2.279,2.2791,2.2792,2.2792,2.2658,2.2674,2.2752,2.2803,2.2841,2.2888,2.2904,2.2941,2.2977,2.2953,2.2953,2.291,2.2668,2.2607,2.2803,2.2801,2.2799,2.2798,2.2798,2.2935,2.2868,2.299,2.3028,2.3086,2.3159,2.3128,2.3207,2.3234,2.328,2.3227,2.3051,2.3027,2.3006,2.2957,2.323,2.323,2.323,2.323,2.309,2.3075,2.3194,2.3256,2.3315,2.33,2.3439,2.3453,2.3458,2.3474,2.3431,2.3363,2.3343,2.333,2.3303,2.3256,2.36,2.36,2.36,2.326,2.3249,2.3372,2.3373,2.3417,2.3456,2.3586,2.3661,2.3653,2.3615,2.3486,2.3471,2.336,2.3325,2.3285,2.3243,2.3156,0,0]},{"header":{"parameterUnit":"m.s-1","parameterCategory":1,"la1":30.2992,"la2":30.254,"lo1":-89.0895,"lo2":-89.0443,"dy":0.0025,"dx":0.0025,"nx":19,"ny":19,"refTime":"2026-03-22T03:00:00:Z","depth":0,"parameterNumber":3,"parameterNumberName":"V-component_of_WINDS"},"data":[0,0,0,5.5111,5.5117,5.5402,5.5403,5.575,5.5753,0,0,0,0,0,0,0,0,0,0,0,5.5021,5.5023,5.511,5.5117,5.5402,5.5403,5.575,5.5753,0,0,0,0,0,0,0,0,0,0,0,5.502,5.5022,5.5025,5.5118,5.5401,5.5403,5.5749,5.5539,0,0,0,0,0,0,0,0,0,0,5.5265,5.5178,5.5022,5.5025,5.512,5.5401,5.5403,5.5529,5.5552,5.5616,0,5.5675,0,5.572,5.5776,5.5777,0,0,0,5.512,5.5159,5.5241,5.5026,5.5122,5.5401,5.5274,5.5542,5.5568,5.5646,5.568,5.5693,5.5726,5.5778,5.578,5.6149,5.6151,0,0,5.5104,5.5068,5.5223,5.5258,5.5218,5.5265,5.5283,5.5558,5.5591,5.5682,5.5702,5.5732,5.578,5.5783,5.6148,5.615,0,0,0,5.5057,5.5057,5.5133,5.5243,5.5296,5.5273,5.5294,5.5579,5.5607,5.5706,5.5736,5.5782,5.5787,5.6146,5.6148,5.6195,0,0,0,5.5048,5.503,5.5126,5.5106,5.5291,5.5442,5.5308,5.5588,5.562,5.5734,5.5783,5.579,5.6144,5.6147,5.619,5.6222,0,0,0,5.5004,5.5025,5.5065,5.5104,5.5226,5.5438,5.5482,5.5595,5.5638,5.5777,5.5791,5.6143,5.6147,5.6186,5.6215,5.6309,0,0,0,5.4945,5.5099,5.5065,5.5248,5.5223,5.5467,5.5481,5.5663,5.5788,5.5784,5.6145,5.6148,5.6184,5.621,5.6304,5.6382,5.6412,0,0,5.5119,5.5119,5.5229,5.5207,5.5448,5.5426,5.5672,5.5818,5.5861,5.6049,5.6059,5.6192,5.6214,5.6308,5.659,5.6613,0,0,0,5.5272,5.5351,5.5423,5.5543,5.5661,5.5764,5.5877,5.5931,5.6093,5.5953,5.6252,5.6267,5.6323,5.6362,5.6382,5.6432,5.6165,5.6164,5.6164,5.5465,5.5516,5.5702,5.5788,5.5903,5.6019,5.6116,5.6208,5.6223,5.6292,5.6348,5.6514,5.6558,5.6573,5.6625,5.6394,5.6394,5.6394,5.6394,5.5723,5.5843,5.5863,5.605,5.6101,5.6257,5.6374,5.6379,5.6529,5.6476,5.6528,5.6464,5.6597,5.6645,5.6398,5.6398,5.6397,5.6397,5.6397,5.5855,5.5922,5.5988,5.6167,5.6298,5.6377,5.6522,5.6563,5.6601,5.6653,5.6716,5.6715,5.6719,5.668,5.6681,5.6681,5.6682,5.6682,5.6683,5.5966,5.6039,5.6159,5.6298,5.6381,5.6494,5.6611,5.6692,5.6791,5.6809,5.6809,5.6816,5.6602,5.6547,5.6692,5.669,5.6689,5.6688,5.6688,5.6208,5.6161,5.6345,5.6428,5.6595,5.6721,5.6773,5.6933,5.7005,5.7075,5.7071,5.6906,5.6907,5.6892,5.6846,5.7061,5.7061,5.7061,5.7061,5.6319,5.6325,5.6523,5.6653,5.6785,5.685,5.7053,5.7145,5.7231,5.7278,5.7253,5.7196,5.7179,5.719,5.7168,5.7127,5.7407,5.7408,5.7408,5.6471,5.6491,5.6659,5.6748,5.6881,5.6993,5.7185,5.7329,5.7417,5.7423,5.7315,5.7301,5.721,5.7178,5.7181,5.7146,5.707,0,0]}]]